Update 03.02. : Die Wetterhütte (Außentemp. Fühler) wird jetzt mittels Solarpanel und Lüfter bei Sonnenschein aktiv belüftet.
Update 19.07. : Eine eigene Kamera für das Wetterbild installiert (HiKam A7 verwaltet vom Synology NAS)
Besuchen Sie den Menüpunkt "Almanach / History" hier gibt es viele interessante Statistiken aus den Daten meiner Wetterstation (seit 2011)

Rindlberg West Mehr Informationen Rindlberg West


Stuetzi - Rindlberg Ost Mehr Informationen Stuetzi - Rindlberg Ost


Regenradar Mehr Informationen rain snow radar


Sie finden meine Wetter-Infos auch auf:

Weather Underground

AWEKAS



Select another period ( hide this area )

Einheiten Zeitraum Custom range Directly to
metrisch Englisch Beide
Tägliche Wöchentliche Monatliche Jährlich
use both date-selectors for a custom range
previous Tag
With this date

WeatherUnderground graphs for this period ( click here )


Tägliche Zusammenfassung für Samstag 15 Dezember 2018
Zeit Temp. ( °C ) Dew pt. ( °C ) Wind ( km/h ) von Windböen ( km/h ) Luftdruck ( hPa ) Humid.( % ) Rainrate ( cm )
Hoch-5,2 -7,1 17,7 NNW ( 693/1489 ) 17,7 1019,9 89 -
Durchchnittswerte-6,1 -8,0 7,0 NNW #89/214 11,3 1018,7 87 -
Tief-6,7 -8,5 -   0,0 1017,8 84 -
Tägliche Tabular details for Samstag 15 Dezember 2018
Zeit Temp. ( °C ) Dew pt. ( °C ) Wind ( km/h ) von Windböen ( km/h ) Luftdruck ( hPa ) Humid.( % ) Rainrate ( cm )
00:04 -6,3 -7,8 11,3 ONO 8,0 1017,8 89 -
00:09 -6,3 -7,8 8,0 NO 8,0 1017,8 89 -
00:14 -6,2 -7,7 4,8 ONO 11,3 1017,8 89 -
00:19 -6,2 -7,7 6,4 ONO 11,3 1017,8 89 -
00:24 -6,2 -7,7 6,4 ONO 9,7 1017,8 89 -
00:29 -6,2 -7,7 3,2 Osten 9,7 1017,8 89 -
00:34 -6,2 -7,7 4,8 OSO 9,7 1017,8 89 -
00:39 -6,3 -7,8 4,8 NO 9,7 1017,8 89 -
00:44 -6,3 -7,8 4,8 NO 12,9 1017,8 89 -
00:49 -6,3 -7,8 8,0 ONO 12,9 1017,8 89 -
00:54 -6,3 -7,8 6,4 ONO 12,9 1017,8 89 -
00:59 -6,4 -7,9 6,4 Osten 11,3 1017,8 89 -
01:04 -6,4 -7,9 8,0 ONO 16,1 1017,8 89 -
01:09 -6,4 -7,9 14,5 NO 16,1 1017,8 89 -
01:14 -6,4 -8,1 8,0 NNO 16,1 1017,8 88 -
01:19 -6,5 -8,2 8,0 NNO 14,5 1017,8 88 -
01:24 -6,5 -8,2 4,8 NO 14,5 1017,8 88 -
01:29 -6,5 -8,2 4,8 ONO 12,9 1017,8 88 -
01:34 -6,5 -8,2 6,4 NNO 12,9 1017,8 88 -
01:39 -6,5 -8,2   Windstille 12,9 1017,8 88 -
01:44 -6,5 -8,2 6,4 ONO 9,7 1017,8 88 -
01:49 -6,5 -8,2   Windstille 12,9 1017,8 88 -
01:54 -6,5 -8,2   Windstille 12,9 1017,8 88 -
01:59 -6,5 -8,2   Windstille 12,9 1017,8 88 -
02:04 -6,5 -8,2 6,4 ONO 6,4 1017,8 88 -
02:09 -6,5 -8,2 4,8 NO 9,7 1018,8 88 -
02:14 -6,5 -8,2 4,8 NNO 12,9 1018,8 88 -
02:19 -6,4 -8,1 4,8 NO 12,9 1018,8 88 -
02:24 -6,4 -8,1 4,8 NO 12,9 1018,8 88 -
02:29 -6,4 -8,1 9,7 NO 9,7 1018,8 88 -
02:34 -6,4 -8,1   Windstille 9,7 1018,8 88 -
02:39 -6,4 -8,1 8,0 NNO 9,7 1018,8 88 -
02:44 -6,4 -8,1 8,0 NNO 9,7 1018,8 88 -
02:49 -6,4 -8,1 11,3 ONO 12,9 1018,8 88 -
02:54 -6,4 -8,1 3,2 NNO 12,9 1018,8 88 -
02:59 -6,4 -8,1 8,0 ONO 12,9 1018,8 88 -
03:04 -6,4 -8,1 6,4 ONO 12,9 1018,8 88 -
03:09 -6,4 -8,1 6,4 NNO 12,9 1018,8 88 -
03:14 -6,4 -8,1 6,4 NO 12,9 1018,8 88 -
03:19 -6,4 -8,1 9,7 NO 12,9 1018,8 88 -
03:24 -6,4 -8,1 6,4 Norden 14,5 1018,8 88 -
03:29 -6,4 -8,1   Windstille 14,5 1018,8 88 -
03:34 -6,4 -8,1 3,2 Norden 14,5 1018,8 88 -
03:39 -6,4 -8,1 6,4 NO 8,0 1018,8 88 -
03:44 -6,4 -8,1 6,4 Norden 8,0 1018,8 88 -
03:49 -6,4 -8,1 4,8 NNO 8,0 1018,8 88 -
03:54 -6,4 -8,1 6,4 Norden 9,7 1018,8 88 -
03:59 -6,4 -8,1 6,4 NO 12,9 1018,8 88 -
04:04 -6,4 -8,1   Windstille 12,9 1018,8 88 -
04:09 -6,4 -8,1 4,8 NNO 12,9 1018,8 88 -
04:14 -6,4 -8,1   Windstille 8,0 1018,8 88 -
04:19 -6,4 -8,1 3,2 NNO 8,0 1018,8 88 -
04:24 -6,4 -8,1   Windstille 6,4 1018,8 88 -
04:29 -6,5 -8,2 8,0 NO 6,4 1018,8 88 -
04:34 -6,5 -8,2 3,2 NO 6,4 1018,8 88 -
04:39 -6,5 -8,2   Windstille 8,0 1018,8 88 -
04:44 -6,5 -8,2   Windstille 8,0 1018,8 88 -
04:49 -6,5 -8,2   Windstille 6,4 1018,8 88 -
04:54 -6,5 -8,2 4,8 NNO 6,4 1018,8 88 -
04:59 -6,5 -8,2 4,8 NNO 6,4 1018,8 88 -
05:04 -6,5 -8,2   Windstille 6,4 1018,8 88 -
05:09 -6,5 -8,2   Windstille 6,4 1017,8 88 -
05:14 -6,6 -8,4   Windstille 6,4 1017,8 87 -
05:19 -6,6 -8,4   Windstille 6,4 1017,8 87 -
05:24 -6,6 -8,4   Windstille 4,8 1018,8 87 -
05:29 -6,6 -8,4 4,8 Norden   1018,8 87 -
05:34 -6,6 -8,4 6,4 Norden 6,4 1018,8 87 -
05:39 -6,7 -8,5 6,4 Norden 6,4 1018,8 87 -
05:44 -6,7 -8,5 4,8 Norden 6,4 1018,8 87 -
05:49 -6,7 -8,5 4,8 Norden 6,4 1018,8 87 -
05:54 -6,7 -8,5 4,8 NNW 6,4 1018,8 87 -
05:59 -6,7 -8,5 3,2 NNW 6,4 1018,8 87 -
06:04 -6,7 -8,5 6,4 NNW 8,0 1018,8 87 -
06:09 -6,7 -8,5 6,4 NNW 8,0 1018,8 87 -
06:14 -6,6 -8,4 6,4 NNW 8,0 1018,8 87 -
06:19 -6,6 -8,3 6,4 NNW 8,0 1018,8 88 -
06:24 -6,6 -8,3 6,4 NNW 8,0 1018,8 88 -
06:29 -6,6 -8,3 6,4 NNW 6,4 1018,8 88 -
06:34 -6,6 -8,3   Windstille 6,4 1018,8 88 -
06:39 -6,6 -8,3 4,8 NNW 6,4 1018,8 88 -
06:44 -6,6 -8,3 4,8 NNW 6,4 1018,8 88 -
06:49 -6,6 -8,3 4,8 NNW 6,4 1018,8 88 -
06:54 -6,7 -8,4 4,8 NNW 6,4 1018,8 88 -
06:59 -6,7 -8,4   Windstille 6,4 1018,8 88 -
07:04 -6,7 -8,4 4,8 NNW 6,4 1018,8 88 -
07:09 -6,6 -8,3 6,4 NNW 6,4 1018,8 88 -
07:14 -6,6 -8,3 4,8 NNW 6,4 1018,8 88 -
07:19 -6,6 -8,3 4,8 NNW 8,0 1018,8 88 -
07:24 -6,6 -8,3 6,4 NNW 8,0 1018,8 88 -
07:29 -6,6 -8,3 4,8 NNW 8,0 1018,8 88 -
07:34 -6,6 -8,3 6,4 NNW 6,4 1018,8 88 -
07:39 -6,5 -8,2 4,8 NNW 6,4 1018,8 88 -
07:44 -6,5 -8,2 6,4 NNW 6,4 1018,8 88 -
07:49 -6,5 -8,2 4,8 NNW 8,0 1018,8 88 -
07:54 -6,5 -8,2 4,8 NNW 8,0 1018,8 88 -
07:59 -6,5 -8,2 6,4 NNW 8,0 1018,8 88 -
08:04 -6,5 -8,2 4,8 NNW 6,4 1018,8 88 -
08:09 -6,5 -8,2 4,8 NNW 6,4 1018,8 88 -
08:14 -6,5 -8,2 4,8 NNW 6,4 1018,8 88 -
08:19 -6,5 -8,2 4,8 NNW 6,4 1018,8 88 -
08:24 -6,5 -8,2 4,8 NNW 6,4 1018,8 88 -
08:29 -6,5 -8,2 6,4 NNW 8,0 1018,8 88 -
08:34 -6,5 -8,2 4,8 NNW 9,7 1018,8 88 -
08:39 -6,5 -8,2   Windstille 9,7 1018,8 88 -
08:44 -6,4 -8,1   Windstille 9,7 1018,8 88 -
08:49 -6,4 -8,1 3,2 NNW 6,4 1018,8 88 -
08:54 -6,4 -8,1 6,4 NNW 6,4 1018,8 88 -
08:59 -6,3 -7,8 4,8 NNW 6,4 1018,8 89 -
09:04 -6,2 -7,7 6,4 NNW 6,4 1018,8 89 -
09:09 -6,1 -7,6 6,4 NNW 8,0 1019,9 89 -
09:14 -6,0 -7,5 8,0 NNW 8,0 1019,9 89 -
09:19 -6,0 -7,5 6,4 NNW 9,7 1019,9 89 -
09:24 -5,9 -7,6 6,4 NW 9,7 1018,8 88 -
09:29 -5,8 -7,5 8,0 NNW 9,7 1018,8 88 -
09:34 -5,8 -7,5 8,0 NW 9,7 1018,8 88 -
09:39 -5,7 -7,4 8,0 NNW 9,7 1019,9 88 -
09:44 -5,7 -7,4 8,0 NNW 11,3 1019,9 88 -
09:49 -5,7 -7,4 9,7 NW 11,3 1019,9 88 -
09:54 -5,6 -7,3 9,7 NW 12,9 1019,9 88 -
09:59 -5,6 -7,4 9,7 NW 12,9 1019,9 87 -
10:04 -5,5 -7,3 12,9 NNW 12,9 1019,9 87 -
10:09 -5,5 -7,3 8,0 NNW 12,9 1019,9 87 -
10:14 -5,5 -7,3 9,7 NNW 16,1 1019,9 87 -
10:19 -5,5 -7,3 9,7 NNW 16,1 1019,9 87 -
10:24 -5,5 -7,3 9,7 NNW 16,1 1019,9 87 -
10:29 -5,5 -7,3 8,0 NNW 16,1 1019,9 87 -
10:34 -5,5 -7,3 9,7 NNW 14,5 1019,9 87 -
10:39 -5,4 -7,2 9,7 Norden 14,5 1019,9 87 -
10:44 -5,4 -7,2 12,9 Norden 14,5 1019,9 87 -
10:49 -5,3 -7,1 17,7 Norden 12,9 1019,9 87 -
10:54 -5,3 -7,3 9,7 NNW 17,7 1019,9 86 -
10:59 -5,2 -7,2 6,4 NNW 17,7 1019,9 86 -
11:04 -5,2 -7,2 11,3 NNW 17,7 1019,9 86 -
11:09 -5,2 -7,2 9,7 NNW 17,7 1018,8 86 -
11:14 -5,2 -7,2 9,7 NNO 17,7 1018,8 86 -
11:19 -5,3 -7,3 12,9 Norden 17,7 1018,8 86 -
11:24 -5,4 -7,4 9,7 NNW 14,5 1018,8 86 -
11:29 -5,4 -7,4 9,7 NW 14,5 1018,8 86 -
11:34 -5,4 -7,7 9,7 NNW 14,5 1018,8 84 -
11:39 -5,4 -7,7 9,7 Norden 12,9 1018,8 84 -
11:44 -5,4 -7,7 9,7 NNW 12,9 1018,8 84 -
11:49 -5,4 -7,7 8,0 NNW 12,9 1018,8 84 -
11:54 -5,5 -7,8 6,4 NNW 12,9 1018,8 84 -
11:59 -5,5 -7,8 9,7 NW 12,9 1018,8 84 -
12:04 -5,5 -7,8 14,5 Norden 12,9 1018,8 84 -
12:09 -5,5 -7,8 9,7 NNW 14,5 1018,8 84 -
12:14 -5,5 -7,8 9,7 WNW 17,7 1018,8 84 -
12:19 -5,5 -7,8 9,7 Norden 17,7 1018,8 84 -
12:24 -5,5 -7,8 12,9 NW 17,7 1018,8 84 -
12:29 -5,4 -7,7 11,3 NW 16,1 1018,8 84 -
12:34 -5,4 -7,7 6,4 NNW 16,1 1018,8 84 -
12:39 -5,3 -7,6 4,8 Norden 16,1 1018,8 84 -
12:44 -5,2 -7,5 6,4 Norden 12,9 1018,8 84 -
12:49 -5,2 -7,5 4,8 Norden 9,7 1018,8 84 -
12:54 -5,3 -7,6 9,7 NNW 9,7 1018,8 84 -
12:59 -5,4 -7,7 6,4 NW 12,9 1018,8 84 -
13:04 -5,4 -7,7 9,7 Norden 17,7 1018,8 84 -
13:09 -5,5 -7,8 12,9 NNW 17,7 1018,8 84 -
13:14 -5,6 -7,9 9,7 Norden 14,5 1018,8 84 -
13:19 -5,7 -8,0 12,9 NW 14,5 1018,8 84 -
13:24 -5,7 -8,0 12,9 NNW 16,1 1018,8 84 -
13:29 -5,7 -8,0 9,7 NW 16,1 1018,8 84 -
13:34 -5,8 -8,1 8,0 NW 16,1 1018,8 84 -
13:39 -5,8 -8,1 9,7 NW 14,5 1018,8 84 -
13:44 -5,8 -8,1 8,0 NNW 12,9 1018,8 84 -
13:49 -5,8 -8,1 9,7 NNW 12,9 1018,8 84 -
13:54 -5,8 -8,1 12,9 NNW 12,9 1017,8 84 -
13:59 -5,8 -8,1 8,0 NNW 11,3 1017,8 84 -
14:04 -5,8 -8,1 6,4 NNW 12,9 1017,8 84 -
14:09 -5,8 -8,1 11,3 NNW 12,9 1018,8 84 -
14:14 -5,8 -8,1 9,7 NNW 11,3 1018,8 84 -
14:19 -5,9 -8,2 8,0 NW 11,3 1018,8 84 -
14:24 -5,9 -8,2 9,7 NNW 12,9 1018,8 84 -
14:29 -5,9 -8,2 9,7 NNW 14,5 1018,8 84 -
14:34 -5,9 -8,2 9,7 NNW 14,5 1018,8 84 -
14:39 -5,9 -8,2 12,9 NW 14,5 1018,8 84 -
14:44 -5,9 -8,2 12,9 NNW 14,5 1018,8 84 -
14:49 -5,9 -8,2 14,5 NNW 14,5 1018,8 84 -
14:54 -5,9 -8,2 8,0 NNW 14,5 1018,8 84 -
14:59 -5,9 -8,2 9,7 NNW 14,5 1018,8 84 -
15:04 -5,9 -8,2 14,5 NNW 14,5 1018,8 84 -
15:09 -5,9 -8,2 9,7 NNW 12,9 1018,8 84 -
15:14 -5,9 -8,2 12,9 WNW 14,5 1018,8 84 -
15:19 -6,0 -8,0 8,0 NW 14,5 1018,8 86 -
15:24 -6,0 -8,0 9,7 NNW 14,5 1018,8 86 -
15:29 -6,0 -8,0 12,9 NW 12,9 1018,8 86 -
15:34 -6,0 -8,0 12,9 NNW 12,9 1018,8 86 -
15:39 -6,0 -8,0 12,9 NNW 17,7 1018,8 86 -
15:44 -6,0 -8,0 6,4 NNW 17,7 1018,8 86 -
15:49 -6,0 -8,0 6,4 NW 17,7 1018,8 86 -
15:54 -6,0 -8,0 9,7 NW 14,5 1018,8 86 -
15:59 -6,0 -8,0 6,4 NW 14,5 1018,8 86 -
16:04 -6,0 -8,0 9,7 NNW 11,3 1018,8 86 -
16:09 -6,0 -8,0 12,9 NW 12,9 1018,8 86 -
16:14 -6,0 -8,0 9,7 NNW 12,9 1018,8 86 -
16:19 -6,0 -8,0 6,4 NW 12,9 1018,8 86 -
16:24 -6,0 -8,0 9,7 NW 12,9 1018,8 86 -
16:29 -6,0 -8,0 6,4 NNW 9,7 1018,8 86 -
16:34 -6,0 -7,8 4,8 NNW 9,7 1018,8 87 -
16:39 -6,0 -7,8 6,4 NNW 11,3 1018,8 87 -
16:44 -6,1 -7,9 11,3 NW 11,3 1018,8 87 -
16:49 -6,1 -7,9 11,3 NW 14,5 1018,8 87 -
16:54 -6,1 -7,9 9,7 NW 14,5 1018,8 87 -
16:59 -6,1 -7,9 4,8 NW 14,5 1018,8 87 -
17:04 -6,1 -7,9 6,4 NW 12,9 1018,8 87 -
17:09 -6,1 -7,9 4,8 NW 12,9 1017,8 87 -
17:14 -6,1 -7,9   Windstille 12,9 1017,8 87 -
17:19 -6,1 -7,9 4,8 NW 11,3 1017,8 87 -
17:24 -6,1 -7,9 4,8 NW 9,7 1018,8 87 -
17:29 -6,1 -7,9 6,4 NW 6,4 1018,8 87 -
17:34 -6,1 -7,9 8,0 NNW 6,4 1018,8 87 -
17:39 -6,1 -7,9 9,7 NNW 6,4 1017,8 87 -
17:44 -6,0 -7,8 4,8 NW 9,7 1017,8 87 -
17:49 -6,0 -7,8 9,7 NW 9,7 1017,8 87 -
Tägliche Zusammenfassung für Samstag 15 Dezember 2018
Zeit Temp. ( °C ) Dew pt. ( °C ) Wind ( km/h ) von Windböen ( km/h ) Luftdruck ( hPa ) Humid.( % ) Rainrate ( cm )
Hoch-5,2 -7,1 17,7 NNW ( 693/1489 ) 17,7 1019,9 89 -
Durchchnittswerte-6,1 -8,0 7,0 NNW #89/214 11,3 1018,7 87 -
Tief-6,7 -8,5 -   0,0 1017,8 84 -
Tägliche Tabular details for Samstag 15 Dezember 2018
Zeit Temp. ( °C ) Dew pt. ( °C ) Wind ( km/h ) von Windböen ( km/h ) Luftdruck ( hPa ) Humid.( % ) Rainrate ( cm )
00:04 -6,3 -7,8 11,3 ONO 8,0 1017,8 89 -
00:09 -6,3 -7,8 8,0 NO 8,0 1017,8 89 -
00:14 -6,2 -7,7 4,8 ONO 11,3 1017,8 89 -
00:19 -6,2 -7,7 6,4 ONO 11,3 1017,8 89 -
00:24 -6,2 -7,7 6,4 ONO 9,7 1017,8 89 -
00:29 -6,2 -7,7 3,2 Osten 9,7 1017,8 89 -
00:34 -6,2 -7,7 4,8 OSO 9,7 1017,8 89 -
00:39 -6,3 -7,8 4,8 NO 9,7 1017,8 89 -
00:44 -6,3 -7,8 4,8 NO 12,9 1017,8 89 -
00:49 -6,3 -7,8 8,0 ONO 12,9 1017,8 89 -
00:54 -6,3 -7,8 6,4 ONO 12,9 1017,8 89 -
00:59 -6,4 -7,9 6,4 Osten 11,3 1017,8 89 -
01:04 -6,4 -7,9 8,0 ONO 16,1 1017,8 89 -
01:09 -6,4 -7,9 14,5 NO 16,1 1017,8 89 -
01:14 -6,4 -8,1 8,0 NNO 16,1 1017,8 88 -
01:19 -6,5 -8,2 8,0 NNO 14,5 1017,8 88 -
01:24 -6,5 -8,2 4,8 NO 14,5 1017,8 88 -
01:29 -6,5 -8,2 4,8 ONO 12,9 1017,8 88 -
01:34 -6,5 -8,2 6,4 NNO 12,9 1017,8 88 -
01:39 -6,5 -8,2   Windstille 12,9 1017,8 88 -
01:44 -6,5 -8,2 6,4 ONO 9,7 1017,8 88 -
01:49 -6,5 -8,2   Windstille 12,9 1017,8 88 -
01:54 -6,5 -8,2   Windstille 12,9 1017,8 88 -
01:59 -6,5 -8,2   Windstille 12,9 1017,8 88 -
02:04 -6,5 -8,2 6,4 ONO 6,4 1017,8 88 -
02:09 -6,5 -8,2 4,8 NO 9,7 1018,8 88 -
02:14 -6,5 -8,2 4,8 NNO 12,9 1018,8 88 -
02:19 -6,4 -8,1 4,8 NO 12,9 1018,8 88 -
02:24 -6,4 -8,1 4,8 NO 12,9 1018,8 88 -
02:29 -6,4 -8,1 9,7 NO 9,7 1018,8 88 -
02:34 -6,4 -8,1   Windstille 9,7 1018,8 88 -
02:39 -6,4 -8,1 8,0 NNO 9,7 1018,8 88 -
02:44 -6,4 -8,1 8,0 NNO 9,7 1018,8 88 -
02:49 -6,4 -8,1 11,3 ONO 12,9 1018,8 88 -
02:54 -6,4 -8,1 3,2 NNO 12,9 1018,8 88 -
02:59 -6,4 -8,1 8,0 ONO 12,9 1018,8 88 -
03:04 -6,4 -8,1 6,4 ONO 12,9 1018,8 88 -
03:09 -6,4 -8,1 6,4 NNO 12,9 1018,8 88 -
03:14 -6,4 -8,1 6,4 NO 12,9 1018,8 88 -
03:19 -6,4 -8,1 9,7 NO 12,9 1018,8 88 -
03:24 -6,4 -8,1 6,4 Norden 14,5 1018,8 88 -
03:29 -6,4 -8,1   Windstille 14,5 1018,8 88 -
03:34 -6,4 -8,1 3,2 Norden 14,5 1018,8 88 -
03:39 -6,4 -8,1 6,4 NO 8,0 1018,8 88 -
03:44 -6,4 -8,1 6,4 Norden 8,0 1018,8 88 -
03:49 -6,4 -8,1 4,8 NNO 8,0 1018,8 88 -
03:54 -6,4 -8,1 6,4 Norden 9,7 1018,8 88 -
03:59 -6,4 -8,1 6,4 NO 12,9 1018,8 88 -
04:04 -6,4 -8,1   Windstille 12,9 1018,8 88 -
04:09 -6,4 -8,1 4,8 NNO 12,9 1018,8 88 -
04:14 -6,4 -8,1   Windstille 8,0 1018,8 88 -
04:19 -6,4 -8,1 3,2 NNO 8,0 1018,8 88 -
04:24 -6,4 -8,1   Windstille 6,4 1018,8 88 -
04:29 -6,5 -8,2 8,0 NO 6,4 1018,8 88 -
04:34 -6,5 -8,2 3,2 NO 6,4 1018,8 88 -
04:39 -6,5 -8,2   Windstille 8,0 1018,8 88 -
04:44 -6,5 -8,2   Windstille 8,0 1018,8 88 -
04:49 -6,5 -8,2   Windstille 6,4 1018,8 88 -
04:54 -6,5 -8,2 4,8 NNO 6,4 1018,8 88 -
04:59 -6,5 -8,2 4,8 NNO 6,4 1018,8 88 -
05:04 -6,5 -8,2   Windstille 6,4 1018,8 88 -
05:09 -6,5 -8,2   Windstille 6,4 1017,8 88 -
05:14 -6,6 -8,4   Windstille 6,4 1017,8 87 -
05:19 -6,6 -8,4   Windstille 6,4 1017,8 87 -
05:24 -6,6 -8,4   Windstille 4,8 1018,8 87 -
05:29 -6,6 -8,4 4,8 Norden   1018,8 87 -
05:34 -6,6 -8,4 6,4 Norden 6,4 1018,8 87 -
05:39 -6,7 -8,5 6,4 Norden 6,4 1018,8 87 -
05:44 -6,7 -8,5 4,8 Norden 6,4 1018,8 87 -
05:49 -6,7 -8,5 4,8 Norden 6,4 1018,8 87 -
05:54 -6,7 -8,5 4,8 NNW 6,4 1018,8 87 -
05:59 -6,7 -8,5 3,2 NNW 6,4 1018,8 87 -
06:04 -6,7 -8,5 6,4 NNW 8,0 1018,8 87 -
06:09 -6,7 -8,5 6,4 NNW 8,0 1018,8 87 -
06:14 -6,6 -8,4 6,4 NNW 8,0 1018,8 87 -
06:19 -6,6 -8,3 6,4 NNW 8,0 1018,8 88 -
06:24 -6,6 -8,3 6,4 NNW 8,0 1018,8 88 -
06:29 -6,6 -8,3 6,4 NNW 6,4 1018,8 88 -
06:34 -6,6 -8,3   Windstille 6,4 1018,8 88 -
06:39 -6,6 -8,3 4,8 NNW 6,4 1018,8 88 -
06:44 -6,6 -8,3 4,8 NNW 6,4 1018,8 88 -
06:49 -6,6 -8,3 4,8 NNW 6,4 1018,8 88 -
06:54 -6,7 -8,4 4,8 NNW 6,4 1018,8 88 -
06:59 -6,7 -8,4   Windstille 6,4 1018,8 88 -
07:04 -6,7 -8,4 4,8 NNW 6,4 1018,8 88 -
07:09 -6,6 -8,3 6,4 NNW 6,4 1018,8 88 -
07:14 -6,6 -8,3 4,8 NNW 6,4 1018,8 88 -
07:19 -6,6 -8,3 4,8 NNW 8,0 1018,8 88 -
07:24 -6,6 -8,3 6,4 NNW 8,0 1018,8 88 -
07:29 -6,6 -8,3 4,8 NNW 8,0 1018,8 88 -
07:34 -6,6 -8,3 6,4 NNW 6,4 1018,8 88 -
07:39 -6,5 -8,2 4,8 NNW 6,4 1018,8 88 -
07:44 -6,5 -8,2 6,4 NNW 6,4 1018,8 88 -
07:49 -6,5 -8,2 4,8 NNW 8,0 1018,8 88 -
07:54 -6,5 -8,2 4,8 NNW 8,0 1018,8 88 -
07:59 -6,5 -8,2 6,4 NNW 8,0 1018,8 88 -
08:04 -6,5 -8,2 4,8 NNW 6,4 1018,8 88 -
08:09 -6,5 -8,2 4,8 NNW 6,4 1018,8 88 -
08:14 -6,5 -8,2 4,8 NNW 6,4 1018,8 88 -
08:19 -6,5 -8,2 4,8 NNW 6,4 1018,8 88 -
08:24 -6,5 -8,2 4,8 NNW 6,4 1018,8 88 -
08:29 -6,5 -8,2 6,4 NNW 8,0 1018,8 88 -
08:34 -6,5 -8,2 4,8 NNW 9,7 1018,8 88 -
08:39 -6,5 -8,2   Windstille 9,7 1018,8 88 -
08:44 -6,4 -8,1   Windstille 9,7 1018,8 88 -
08:49 -6,4 -8,1 3,2 NNW 6,4 1018,8 88 -
08:54 -6,4 -8,1 6,4 NNW 6,4 1018,8 88 -
08:59 -6,3 -7,8 4,8 NNW 6,4 1018,8 89 -
09:04 -6,2 -7,7 6,4 NNW 6,4 1018,8 89 -
09:09 -6,1 -7,6 6,4 NNW 8,0 1019,9 89 -
09:14 -6,0 -7,5 8,0 NNW 8,0 1019,9 89 -
09:19 -6,0 -7,5 6,4 NNW 9,7 1019,9 89 -
09:24 -5,9 -7,6 6,4 NW 9,7 1018,8 88 -
09:29 -5,8 -7,5 8,0 NNW 9,7 1018,8 88 -
09:34 -5,8 -7,5 8,0 NW 9,7 1018,8 88 -
09:39 -5,7 -7,4 8,0 NNW 9,7 1019,9 88 -
09:44 -5,7 -7,4 8,0 NNW 11,3 1019,9 88 -
09:49 -5,7 -7,4 9,7 NW 11,3 1019,9 88 -
09:54 -5,6 -7,3 9,7 NW 12,9 1019,9 88 -
09:59 -5,6 -7,4 9,7 NW 12,9 1019,9 87 -
10:04 -5,5 -7,3 12,9 NNW 12,9 1019,9 87 -
10:09 -5,5 -7,3 8,0 NNW 12,9 1019,9 87 -
10:14 -5,5 -7,3 9,7 NNW 16,1 1019,9 87 -
10:19 -5,5 -7,3 9,7 NNW 16,1 1019,9 87 -
10:24 -5,5 -7,3 9,7 NNW 16,1 1019,9 87 -
10:29 -5,5 -7,3 8,0 NNW 16,1 1019,9 87 -
10:34 -5,5 -7,3 9,7 NNW 14,5 1019,9 87 -
10:39 -5,4 -7,2 9,7 Norden 14,5 1019,9 87 -
10:44 -5,4 -7,2 12,9 Norden 14,5 1019,9 87 -
10:49 -5,3 -7,1 17,7 Norden 12,9 1019,9 87 -
10:54 -5,3 -7,3 9,7 NNW 17,7 1019,9 86 -
10:59 -5,2 -7,2 6,4 NNW 17,7 1019,9 86 -
11:04 -5,2 -7,2 11,3 NNW 17,7 1019,9 86 -
11:09 -5,2 -7,2 9,7 NNW 17,7 1018,8 86 -
11:14 -5,2 -7,2 9,7 NNO 17,7 1018,8 86 -
11:19 -5,3 -7,3 12,9 Norden 17,7 1018,8 86 -
11:24 -5,4 -7,4 9,7 NNW 14,5 1018,8 86 -
11:29 -5,4 -7,4 9,7 NW 14,5 1018,8 86 -
11:34 -5,4 -7,7 9,7 NNW 14,5 1018,8 84 -
11:39 -5,4 -7,7 9,7 Norden 12,9 1018,8 84 -
11:44 -5,4 -7,7 9,7 NNW 12,9 1018,8 84 -
11:49 -5,4 -7,7 8,0 NNW 12,9 1018,8 84 -
11:54 -5,5 -7,8 6,4 NNW 12,9 1018,8 84 -
11:59 -5,5 -7,8 9,7 NW 12,9 1018,8 84 -
12:04 -5,5 -7,8 14,5 Norden 12,9 1018,8 84 -
12:09 -5,5 -7,8 9,7 NNW 14,5 1018,8 84 -
12:14 -5,5 -7,8 9,7 WNW 17,7 1018,8 84 -
12:19 -5,5 -7,8 9,7 Norden 17,7 1018,8 84 -
12:24 -5,5 -7,8 12,9 NW 17,7 1018,8 84 -
12:29 -5,4 -7,7 11,3 NW 16,1 1018,8 84 -
12:34 -5,4 -7,7 6,4 NNW 16,1 1018,8 84 -
12:39 -5,3 -7,6 4,8 Norden 16,1 1018,8 84 -
12:44 -5,2 -7,5 6,4 Norden 12,9 1018,8 84 -
12:49 -5,2 -7,5 4,8 Norden 9,7 1018,8 84 -
12:54 -5,3 -7,6 9,7 NNW 9,7 1018,8 84 -
12:59 -5,4 -7,7 6,4 NW 12,9 1018,8 84 -
13:04 -5,4 -7,7 9,7 Norden 17,7 1018,8 84 -
13:09 -5,5 -7,8 12,9 NNW 17,7 1018,8 84 -
13:14 -5,6 -7,9 9,7 Norden 14,5 1018,8 84 -
13:19 -5,7 -8,0 12,9 NW 14,5 1018,8 84 -
13:24 -5,7 -8,0 12,9 NNW 16,1 1018,8 84 -
13:29 -5,7 -8,0 9,7 NW 16,1 1018,8 84 -
13:34 -5,8 -8,1 8,0 NW 16,1 1018,8 84 -
13:39 -5,8 -8,1 9,7 NW 14,5 1018,8 84 -
13:44 -5,8 -8,1 8,0 NNW 12,9 1018,8 84 -
13:49 -5,8 -8,1 9,7 NNW 12,9 1018,8 84 -
13:54 -5,8 -8,1 12,9 NNW 12,9 1017,8 84 -
13:59 -5,8 -8,1 8,0 NNW 11,3 1017,8 84 -
14:04 -5,8 -8,1 6,4 NNW 12,9 1017,8 84 -
14:09 -5,8 -8,1 11,3 NNW 12,9 1018,8 84 -
14:14 -5,8 -8,1 9,7 NNW 11,3 1018,8 84 -
14:19 -5,9 -8,2 8,0 NW 11,3 1018,8 84 -
14:24 -5,9 -8,2 9,7 NNW 12,9 1018,8 84 -
14:29 -5,9 -8,2 9,7 NNW 14,5 1018,8 84 -
14:34 -5,9 -8,2 9,7 NNW 14,5 1018,8 84 -
14:39 -5,9 -8,2 12,9 NW 14,5 1018,8 84 -
14:44 -5,9 -8,2 12,9 NNW 14,5 1018,8 84 -
14:49 -5,9 -8,2 14,5 NNW 14,5 1018,8 84 -
14:54 -5,9 -8,2 8,0 NNW 14,5 1018,8 84 -
14:59 -5,9 -8,2 9,7 NNW 14,5 1018,8 84 -
15:04 -5,9 -8,2 14,5 NNW 14,5 1018,8 84 -
15:09 -5,9 -8,2 9,7 NNW 12,9 1018,8 84 -
15:14 -5,9 -8,2 12,9 WNW 14,5 1018,8 84 -
15:19 -6,0 -8,0 8,0 NW 14,5 1018,8 86 -
15:24 -6,0 -8,0 9,7 NNW 14,5 1018,8 86 -
15:29 -6,0 -8,0 12,9 NW 12,9 1018,8 86 -
15:34 -6,0 -8,0 12,9 NNW 12,9 1018,8 86 -
15:39 -6,0 -8,0 12,9 NNW 17,7 1018,8 86 -
15:44 -6,0 -8,0 6,4 NNW 17,7 1018,8 86 -
15:49 -6,0 -8,0 6,4 NW 17,7 1018,8 86 -
15:54 -6,0 -8,0 9,7 NW 14,5 1018,8 86 -
15:59 -6,0 -8,0 6,4 NW 14,5 1018,8 86 -
16:04 -6,0 -8,0 9,7 NNW 11,3 1018,8 86 -
16:09 -6,0 -8,0 12,9 NW 12,9 1018,8 86 -
16:14 -6,0 -8,0 9,7 NNW 12,9 1018,8 86 -
16:19 -6,0 -8,0 6,4 NW 12,9 1018,8 86 -
16:24 -6,0 -8,0 9,7 NW 12,9 1018,8 86 -
16:29 -6,0 -8,0 6,4 NNW 9,7 1018,8 86 -
16:34 -6,0 -7,8 4,8 NNW 9,7 1018,8 87 -
16:39 -6,0 -7,8 6,4 NNW 11,3 1018,8 87 -
16:44 -6,1 -7,9 11,3 NW 11,3 1018,8 87 -
16:49 -6,1 -7,9 11,3 NW 14,5 1018,8 87 -
16:54 -6,1 -7,9 9,7 NW 14,5 1018,8 87 -
16:59 -6,1 -7,9 4,8 NW 14,5 1018,8 87 -
17:04 -6,1 -7,9 6,4 NW 12,9 1018,8 87 -
17:09 -6,1 -7,9 4,8 NW 12,9 1017,8 87 -
17:14 -6,1 -7,9   Windstille 12,9 1017,8 87 -
17:19 -6,1 -7,9 4,8 NW 11,3 1017,8 87 -
17:24 -6,1 -7,9 4,8 NW 9,7 1018,8 87 -
17:29 -6,1 -7,9 6,4 NW 6,4 1018,8 87 -
17:34 -6,1 -7,9 8,0 NNW 6,4 1018,8 87 -
17:39 -6,1 -7,9 9,7 NNW 6,4 1017,8 87 -
17:44 -6,0 -7,8 4,8 NW 9,7 1017,8 87 -
17:49 -6,0 -7,8 9,7 NW 9,7 1017,8 87 -

Download your copy of this data-set  here

Our weather-data as stored at Weather Underground. Script entwickelt von Jim McMurry. Angepasst für das Template von Leuven-Template.eu